Location: Recife
(8.0585°S, 34.8848°W)
Time: 10:57:36
(UTC-03:00)

Explorer 7 - Pass Details

Date: 21 April 2026
Orbit: 427 x 536 km, 50.2° (Epoch: 14 May)

Event Time Altitude Azimuth Distance (km) Brightness Sun altitude
Rises 10:54:22 0° 240° (WSW) 2,510 10.0 69.1°
Reaches altitude 10° 10:56:51 10° 256° (WSW) 1,652 9.3 69.3°
Maximum altitude 10:59:45 21° 307° (NW) 1,134 8.9 69.4°
Drops below altitude 10° 11:02:43 10° 358° (N) 1,694 9.8 69.6°
Sets 11:05:19 0° 14° (NNE) 2,595 10.5 69.7°
